Simultaneous Nadir Overpasses (SNOs) Predictions

Prediction of SNOs between AQUA and METOP-B Satellite Orbit:

Table of predicted SNOs for the next 14.0 days since TLE Epoch: 9/1/2017
Index Date (AQUA) Time (AQUA) Lat,Lon (AQUA) SZA (AQUA ) Date (METOP-B) Time (METOP-B) Lat,Lon (METOP-B) SZA (METOP-B ) Distance(km) Time Diff (sec)
1 09/02/2017 18:23:34 73.79,-101.64 66.14 09/02/2017 18:22:56 73.81,-101.71 66.17 3.19 38
2 09/02/2017 19:13:01 -73.87, 65.82 113.76 09/02/2017 19:13:37 -73.87, 65.75 113.76 1.99 36
3 09/05/2017 13:57:50 73.82, -35.28 67.21 09/05/2017 13:57:16 73.80, -35.32 67.20 2.61 34
4 09/05/2017 14:47:17 -73.91, 132.18 112.69 09/05/2017 14:47:56 -73.91, 132.27 112.69 2.77 39
5 09/08/2017 09:32:05 73.81, 31.18 68.25 09/08/2017 09:31:35 73.84, 31.18 68.28 3.33 30
6 09/08/2017 10:21:32 -73.90,-161.36 111.66 09/08/2017 10:22:16 -73.90,-161.34 111.65 1.09 44
7 09/11/2017 05:06:19 73.81, 97.63 69.30 09/11/2017 05:05:54 73.83, 97.57 69.33 2.96 25
8 09/11/2017 05:55:46 -73.89, -94.91 110.60 09/11/2017 05:56:35 -73.89, -94.96 110.60 1.31 49
9 09/13/2017 23:50:55 -73.22, -2.33 110.26 09/13/2017 23:49:48 -73.16, -4.89 110.25 82.49 67
10 09/14/2017 00:40:34 73.82, 164.05 70.38 09/14/2017 00:40:14 73.82, 163.95 70.39 3.25 20
11 09/14/2017 01:30:01 -73.90, -28.49 109.53 09/14/2017 01:30:55 -73.88, -28.57 109.54 3.13 54




NCC Satellite Simultaneous Nadir Overpasses (SNOs) Prediction Service
